GW6181 Weather Reports


time (UTC)temp
C
wind
direction
speed
KPH
gust
KPH
rain 1hr
cm
rain 24hr
cm
rain mn
cm
humidity
%
barometer
mb
20260510203517 18 49 1.6 4.8 0.00 0.00 0.00 64 1012.0
20260510203017 19 65 8.0 11.3 0.00 0.00 0.00 60 1012.0
20260510202517 19 11 4.8 8.0 0.00 0.00 0.00 59 1012.0
20260510202016 20 89 4.8 8.0 0.00 0.00 0.00 57 1012.0
20260510201516 20 21 0.0 8.0 0.00 0.00 0.00 56 1012.0
20260510201016 20 271 3.2 6.4 0.00 0.00 0.00 55 1011.0
20260510200517 20 241 3.2 4.8 0.00 0.00 0.00 54 1011.0
20260510200017 20 305 0.0 6.4 0.00 0.00 0.00 53 1011.0
20260510195518 20 168 6.4 6.4 0.00 0.00 0.00 52 1011.0
20260510195017 20 250 3.2 8.0 0.00 0.00 0.00 50 1011.0
20260510194517 21 283 6.4 6.4 0.00 0.00 0.00 50 1011.0
20260510194016 21 25 1.6 8.0 0.00 0.00 0.00 49 1011.0
20260510193517 21 345 8.0 9.7 0.00 0.00 0.00 48 1011.0
20260510193018 21 273 3.2 4.8 0.00 0.00 0.00 49 1011.0
20260510192516 22 94 3.2 4.8 0.00 0.00 0.00 47 1011.0
20260510192017 23 349 6.4 8.0 0.00 0.00 0.00 44 1011.0
20260510191517 22 311 1.6 8.0 0.00 0.00 0.00 45 1011.0
20260510191017 22 308 1.6 8.0 0.00 0.00 0.00 46 1011.0
20260510190516 23 339 6.4 9.7 0.00 0.00 0.00 43 1011.0
20260510190016 23 332 3.2 8.0 0.00 0.00 0.00 49 1011.0
20260510185517 23 296 0.0 4.8 0.00 0.00 0.00 47 1011.0
20260510185016 23 296 1.6 8.0 0.00 0.00 0.00 48 1011.0
20260510184517 23 206 3.2 6.4 0.00 0.00 0.00 50 1011.0
20260510184016 22 110 0.0 4.8 0.00 0.00 0.00 52 1011.0
20260510183516 22 213 1.6 4.8 0.00 0.00 0.00 53 1011.0
20260510183016 22 325 0.0 4.8 0.00 0.00 0.00 52 1011.0
20260510182516 22 135 0.0 6.4 0.00 0.00 0.00 53 1011.0
20260510182016 23 191 0.0 0.0 0.00 0.00 0.00 53 1011.0
20260510181516 23 220 1.6 3.2 0.00 0.00 0.00 51 1011.0
20260510181016 22 82 1.6 4.8 0.00 0.00 0.00 51 1011.0
20260510180517 22 297 0.0 6.4 0.00 0.00 0.00 52 1011.0
20260510180016 22 232 3.2 11.3 0.00 0.00 0.00 51 1011.0
20260510175517 22 328 0.0 4.8 0.00 0.00 0.00 55 1011.0
20260510175016 22 332 4.8 6.4 0.00 0.00 0.00 54 1011.0
20260510174516 22 250 3.2 4.8 0.00 0.00 0.00 53 1011.0
20260510174017 23 130 1.6 4.8 0.00 0.00 0.00 53 1011.0
20260510173517 23 257 1.6 4.8 0.00 0.00 0.00 53 1011.0
20260510173016 23 331 1.6 11.3 0.00 0.00 0.00 53 1011.0
20260510172516 23 298 4.8 6.4 0.00 0.00 0.00 53 1011.0
20260510172016 23 248 3.2 4.8 0.00 0.00 0.00 58 1011.0
20260510171516 22 217 3.2 9.7 0.00 0.00 0.00 56 1011.0
20260510171017 22 193 3.2 6.4 0.00 0.00 0.00 58 1011.0
20260510170517 22 335 1.6 4.8 0.00 0.00 0.00 59 1011.0
20260510170016 22 237 4.8 4.8 0.00 0.00 0.00 58 1011.0
20260510165517 22 200 4.8 6.4 0.00 0.00 0.00 59 1011.0
20260510165016 22 7 8.0 8.0 0.00 0.00 0.00 58 1011.0
20260510164516 22 246 0.0 4.8 0.00 0.00 0.00 62 1011.0
20260510164018 21 125 0.0 4.8 0.00 0.00 0.00 60 1011.0
20260510163517 21 44 3.2 6.4 0.00 0.00 0.00 62 1011.0
20260510163017 21 169 0.0 6.4 0.00 0.00 0.00 61 1011.0
20260510162517 20 286 3.2 4.8 0.00 0.00 0.00 66 1011.0
20260510162018 21 29 4.8 9.7 0.00 0.00 0.00 63 1011.0
20260510161516 21 20 0.0 4.8 0.00 0.00 0.00 66 1011.0
20260510161017 20 204 3.2 6.4 0.00 0.00 0.00 71 1011.0
20260510160516 19 37 3.2 3.2 0.00 0.00 0.00 73 1012.0
20260510160016 19 160 1.6 4.8 0.00 0.00 0.00 74 1012.0
20260510155517 18 179 3.2 3.2 0.00 0.00 0.00 76 1012.0
20260510155016 18 222 1.6 3.2 0.00 0.00 0.00 75 1012.0
20260510154516 18 212 0.0 4.8 0.00 0.00 0.00 78 1012.0
20260510154016 17 199 0.0 3.2 0.00 0.00 0.00 81 1012.0
20260510153516 17 191 0.0 4.8 0.00 0.00 0.00 81 1012.0
20260510153016 16 124 0.0 3.2 0.00 0.00 0.00 83 1012.0
20260510152517 16 136 0.0 4.8 0.00 0.00 0.00 84 1012.0
20260510152016 16 44 0.0 4.8 0.00 0.00 0.00 84 1012.0
20260510151517 16 179 3.2 4.8 0.00 0.00 0.00 84 1012.0
20260510151016 16 175 1.6 3.2 0.00 0.00 0.00 86 1012.0
20260510150516 15 282 0.0 4.8 0.00 0.00 0.00 88 1012.0
20260510150016 15 13 0.0 3.2 0.00 0.00 0.00 90 1012.0
20260510145516 15 173 0.0 1.6 0.00 0.00 0.00 89 1012.0
20260510145016 15 186 0.0 3.2 0.00 0.00 0.00 90 1012.0
20260510144517 14 76 0.0 3.2 0.00 0.00 0.00 91 1012.0
20260510144016 14 182 1.6 4.8 0.00 0.00 0.00 94 1012.0
20260510143516 13 124 0.0 1.6 0.00 0.00 0.00 97 1012.0
20260510143016 13 62 0.0 1.6 0.00 0.00 0.00 97 1012.0
20260510142520 13 88 0.0 3.2 0.00 0.00 0.00 98 1012.0
20260510142017 13 127 3.2 3.2 0.00 0.00 0.00 98 1012.0
20260510141518 13 145 0.0 3.2 0.00 0.00 0.00 99 1012.0
20260510141016 12 157 0.0 1.6 0.00 0.00 0.00 99 1012.0
20260510140517 12 126 1.6 3.2 0.00 0.00 0.00 99 1012.0
20260510140016 12 135 0.0 3.2 0.00 0.00 0.00 99 1012.0
20260510135517 12 162 0.0 3.2 0.00 0.00 0.00 99 1012.0
20260510135016 12 117 0.0 3.2 0.00 0.00 0.00 99 1012.0
20260510134517 12 125 0.0 1.6 0.00 0.00 0.00 99 1012.0
20260510134016 12 108 0.0 3.2 0.00 0.00 0.00 99 1012.0
20260510133516 12 188 3.2 3.2 0.00 0.00 0.00 99 1012.0
20260510133017 12 169 1.6 4.8 0.00 0.00 0.00 99 1012.0
20260510132516 12 170 1.6 3.2 0.00 0.00 0.00 99 1012.0
20260510132016 12 137 3.2 4.8 0.00 0.00 0.00 99 1012.0
20260510131516 12 26 3.2 3.2 0.00 0.00 0.00 99 1012.0
20260510131016 12 148 1.6 3.2 0.00 0.00 0.00 99 1012.0
20260510130517 12 147 0.0 1.6 0.00 0.00 0.00 99 1012.0
20260510130017 12 121 0.0 3.2 0.00 0.00 0.00 99 1012.0
20260510125517 12 44 0.0 1.6 0.00 0.00 0.00 98 1012.0
20260510125018 11 71 0.0 3.2 0.00 0.00 0.00 99 1012.0
20260510124516 11 52 0.0 1.6 0.00 0.00 0.00 99 1012.0
20260510124017 11 70 1.6 8.0 0.00 0.00 0.00 99 1012.0
20260510123517 11 337 1.6 6.4 0.00 0.00 0.00 99 1012.0
20260510123017 11 0 3.2 11.3 0.00 0.00 0.00 98 1012.0
20260510122516 11 178 1.6 6.4 0.00 0.00 0.00 99 1012.0
20260510122016 11 79 0.0 6.4 0.00 0.00 0.00 99 1011.0
20260510121517 10 60 0.0 4.8 0.00 0.00 0.00 99 1012.0
20260510121016 10 112 1.6 4.8 0.00 0.00 0.00 99 1012.0
20260510120516 10 320 4.8 4.8 0.00 0.00 0.00 99 1012.0
20260510120016 10 39 3.2 6.4 0.00 0.00 0.00 99 1011.0
20260510115516 10 350 4.8 8.0 0.00 0.00 0.00 99 1011.0
20260510115016 10 38 3.2 8.0 0.00 0.00 0.00 99 1011.0
20260510114517 10 271 0.0 4.8 0.00 0.00 0.00 99 1011.0
20260510114016 10 41 0.0 3.2 0.00 0.00 0.00 99 1011.0
20260510113516 10 169 1.6 4.8 0.00 0.00 0.00 99 1011.0
20260510113016 10 157 1.6 8.0 0.00 0.00 0.00 99 1011.0
20260510112516 10 143 4.8 6.4 0.00 0.00 0.00 99 1011.0
20260510112016 10 142 4.8 8.0 0.00 0.00 0.00 99 1011.0
20260510111516 10 156 3.2 8.0 0.00 0.00 0.00 99 1011.0
20260510111016 10 164 3.2 9.7 0.00 0.00 0.00 99 1011.0
20260510110516 10 149 4.8 6.4 0.00 0.00 0.00 99 1011.0
20260510110017 10 304 3.2 8.0 0.00 0.00 0.00 99 1011.0
20260510105516 9 82 0.0 6.4 0.00 0.00 0.00 99 1011.0
20260510105017 9 241 0.0 4.8 0.00 0.00 0.00 99 1011.0
20260510104517 9 24 3.2 6.4 0.00 0.00 0.00 99 1011.0
20260510104017 9 100 1.6 4.8 0.00 0.00 0.00 99 1011.0
20260510103516 9 102 4.8 6.4 0.00 0.00 0.00 99 1011.0
20260510103017 9 91 0.0 4.8 0.00 0.00 0.00 99 1010.0
20260510102517 9 218 3.2 3.2 0.00 0.00 0.00 99 1011.0
20260510102016 9 23 0.0 3.2 0.00 0.00 0.00 99 1011.0
20260510101516 9 65 0.0 8.0 0.00 0.00 0.00 99 1011.0
20260510101016 9 146 0.0 6.4 0.00 0.00 0.00 99 1010.0
20260510100516 9 231 0.0 6.4 0.00 0.00 0.00 99 1010.0
20260510100016 9 37 4.8 8.0 0.00 0.00 0.00 99 1011.0
20260510095516 9 94 3.2 4.8 0.00 0.00 0.00 99 1011.0
20260510095016 9 96 0.0 4.8 0.00 0.00 0.00 99 1011.0
20260510094518 9 104 1.6 6.4 0.00 0.00 0.00 99 1011.0
20260510094018 9 147 0.0 8.0 0.00 0.00 0.00 99 1011.0
20260510093517 9 304 3.2 4.8 0.00 0.00 0.00 99 1010.0
20260510093016 9 175 3.2 6.4 0.00 0.00 0.00 99 1011.0
20260510092517 9 242 4.8 6.4 0.00 0.00 0.00 99 1010.0
20260510092017 8 86 0.0 8.0 0.00 0.00 0.00 99 1010.0
20260510091516 8 166 1.6 4.8 0.00 0.00 0.00 99 1011.0
20260510091016 8 168 1.6 11.3 0.00 0.00 0.00 99 1011.0
20260510090516 9 175 3.2 8.0 0.00 0.00 0.00 99 1011.0
20260510090017 9 36 6.4 8.0 0.00 0.00 0.00 99 1011.0
20260510085517 9 102 6.4 9.7 0.00 0.00 0.00 99 1011.0
20260510085017 9 33 1.6 6.4 0.00 0.00 0.00 99 1011.0
20260510084516 9 50 1.6 4.8 0.00 0.00 0.00 98 1011.0
20260510084017 9 65 3.2 4.8 0.00 0.00 0.00 98 1011.0
20260510083516 8 359 4.8 4.8 0.00 0.00 0.00 99 1011.0
20260510083016 8 30 0.0 4.8 0.00 0.00 0.00 99 1011.0
20260510082516 8 1 3.2 4.8 0.00 0.00 0.00 99 1011.0
20260510082017 8 6 3.2 4.8 0.00 0.00 0.00 98 1011.0
20260510081516 8 36 1.6 4.8 0.00 0.00 0.00 98 1011.0
20260510081016 8 11 3.2 4.8 0.00 0.00 0.00 98 1011.0
20260510080516 8 176 3.2 8.0 0.00 0.00 0.00 98 1010.0
20260510080016 8 12 3.2 6.4 0.00 0.00 0.00 99 1011.0
20260510075516 8 58 0.0 0.0 0.00 0.00 0.00 99 1010.0
20260510075016 8 51 0.0 0.0 0.00 0.00 0.00 99 1010.0
20260510074516 8 49 0.0 1.6 0.00 0.00 0.00 99 1010.0
20260510074016 8 43 0.0 1.6 0.00 0.00 0.00 99 1010.0
20260510073516 8 50 0.0 1.6 0.00 0.00 0.00 99 1010.0
20260510073016 8 44 0.0 0.0 0.00 0.00 0.00 99 1010.0
20260510072516 8 66 0.0 1.6 0.00 0.00 0.00 98 1010.0
20260510072016 8 32 0.0 1.6 0.00 0.00 0.00 99 1010.0
20260510071516 8 50 0.0 0.0 0.00 0.00 0.00 99 1010.0
20260510071016 9 53 0.0 1.6 0.00 0.00 0.00 99 1010.0
20260510070516 9 89 0.0 1.6 0.00 0.00 0.00 99 1010.0
20260510070016 9 17 0.0 1.6 0.00 0.00 0.00 99 1010.0
20260510065517 9 62 0.0 0.0 0.00 0.00 0.00 98 1010.0
20260510065016 9 62 0.0 1.6 0.00 0.00 0.00 98 1010.0
20260510064517 9 55 3.2 3.2 0.00 0.00 0.00 99 1010.0
20260510064016 9 75 4.8 4.8 0.00 0.00 0.00 99 1010.0
20260510063517 9 45 4.8 6.4 0.00 0.00 0.00 99 1010.0
20260510063016 9 86 0.0 3.2 0.00 0.00 0.00 99 1010.0
20260510062516 9 117 0.0 1.6 0.00 0.00 0.00 99 1010.0
20260510062016 10 217 0.0 1.6 0.00 0.00 0.00 99 1010.0
20260510061516 10 54 0.0 1.6 0.00 0.00 0.00 99 1010.0
20260510061018 10 51 0.0 3.2 0.00 0.00 0.00 98 1010.0
20260510060516 10 60 0.0 1.6 0.00 0.00 0.00 98 1010.0
20260510060016 10 55 0.0 0.0 0.00 0.00 0.00 98 1010.0
20260510055518 10 113 0.0 0.0 0.00 0.00 0.00 98 1010.0
20260510055016 10 62 0.0 1.6 0.00 0.00 0.00 98 1010.0
20260510054517 10 120 0.0 1.6 0.00 0.00 0.00 98 1010.0
20260510054017 10 50 0.0 1.6 0.00 0.00 0.00 98 1010.0
20260510053516 10 32 0.0 0.0 0.00 0.00 0.00 98 1010.0
20260510053016 10 89 0.0 3.2 0.00 0.00 0.00 98 1010.0
20260510052516 10 135 0.0 1.6 0.00 0.00 0.00 98 1010.0
20260510052017 10 66 0.0 0.0 0.00 0.00 0.00 98 1010.0
20260510051516 10 69 0.0 0.0 0.00 0.00 0.00 98 1010.0
20260510051016 10 94 0.0 0.0 0.00 0.00 0.00 98 1010.0
20260510050516 10 62 0.0 0.0 0.00 0.00 0.00 98 1010.0
20260510050016 10 69 0.0 0.0 0.00 0.00 0.00 98 1010.0
20260510045516 10 62 0.0 0.0 0.00 0.00 0.00 98 1010.0
20260510045016 10 66 0.0 0.0 0.00 0.00 0.00 98 1010.0
20260510044516 10 62 0.0 0.0 0.00 0.00 0.00 98 1010.0
20260510044018 10 62 0.0 0.0 0.00 0.00 0.00 97 1010.0
20260510043517 10 44 0.0 0.0 0.00 0.00 0.00 97 1010.0
20260510043017 10 50 0.0 0.0 0.00 0.00 0.00 97 1010.0
20260510042516 9 89 1.6 1.6 0.00 0.00 0.00 98 1010.0
20260510042017 9 117 0.0 0.0 0.00 0.00 0.00 98 1010.0
20260510041516 9 129 0.0 0.0 0.00 0.00 0.00 98 1010.0
20260510041016 9 230 0.0 0.0 0.00 0.00 0.00 98 1010.0
20260510040517 9 135 0.0 0.0 0.00 0.00 0.00 98 1010.0
20260510040016 9 135 0.0 0.0 0.00 0.00 0.00 98 1010.0
20260510035518 9 135 0.0 0.0 0.00 0.00 0.00 98 1010.0
20260510035016 9 142 0.0 1.6 0.00 0.00 0.00 99 1010.0
20260510034516 9 62 0.0 1.6 0.00 0.00 0.00 99 1010.0
20260510034016 10 25 0.0 0.0 0.00 0.00 0.00 98 1010.0
20260510033516 10 122 0.0 1.6 0.00 0.00 0.00 97 1010.0
20260510033016 10 129 0.0 1.6 0.00 0.00 0.00 97 1010.0
20260510032518 10 130 0.0 1.6 0.00 0.00 0.00 97 1010.0
20260510032016 10 133 1.6 1.6 0.00 0.00 0.00 97 1010.0
20260510031516 10 142 0.0 1.6 0.00 0.00 0.00 97 1010.0
20260510031021 10 111 1.6 3.2 0.00 0.00 0.00 97 1010.0
20260510030516 10 55 0.0 1.6 0.00 0.00 0.00 98 1010.0
20260510030016 10 113 0.0 0.0 0.00 0.00 0.00 97 1010.0
20260510025516 10 117 0.0 0.0 0.00 0.00 0.00 97 1010.0
20260510025016 10 117 0.0 1.6 0.00 0.00 0.00 97 1010.0
20260510024517 10 144 0.0 0.0 0.00 0.00 0.00 97 1010.0
20260510024017 10 140 0.0 1.6 0.00 0.00 0.00 97 1010.0
20260510023517 10 141 0.0 0.0 0.00 0.00 0.00 97 1010.0
20260510023017 10 142 0.0 1.6 0.00 0.00 0.00 97 1010.0
20260510022516 10 69 0.0 0.0 0.00 0.00 0.00 97 1010.0
20260510022016 10 89 0.0 1.6 0.00 0.00 0.00 97 1010.0
20260510021519 10 129 0.0 0.0 0.00 0.00 0.00 97 1010.0
20260510021016 10 154 0.0 1.6 0.00 0.00 0.00 97 1010.0
20260510020516 10 37 0.0 0.0 0.00 0.00 0.00 97 1010.0
20260510020016 10 138 0.0 1.6 0.00 0.00 0.00 97 1010.0
20260510015516 10 154 0.0 0.0 0.00 0.00 0.00 97 1010.0
20260510015016 10 242 0.0 0.0 0.00 0.00 0.00 97 1010.0
20260510014517 10 154 0.0 0.0 0.00 0.00 0.00 97 1010.0
20260510014018 10 135 0.0 0.0 0.00 0.00 0.00 97 1010.0
20260510013516 10 154 0.0 1.6 0.00 0.00 0.00 97 1010.0
20260510013017 10 147 0.0 0.0 0.00 0.00 0.00 97 1010.0
20260510012516 10 138 1.6 1.6 0.00 0.00 0.00 96 1010.0
20260510012016 10 253 0.0 0.0 0.00 0.00 0.00 96 1010.0
20260510011517 10 248 0.0 1.6 0.00 0.00 0.00 96 1010.0
20260510011016 10 142 0.0 0.0 0.00 0.00 0.00 96 1010.0
20260510010517 10 37 0.0 0.0 0.00 0.00 0.00 96 1010.0
20260510010016 10 117 0.0 0.0 0.00 0.00 0.00 96 1010.0
20260510005516 10 294 0.0 0.0 0.00 0.00 0.00 96 1009.0
20260510005016 10 240 0.0 1.6 0.00 0.00 0.00 96 1009.0
20260510004516 10 315 0.0 0.0 0.00 0.00 0.00 96 1009.0
20260510004016 10 129 0.0 1.6 0.00 0.00 0.00 96 1009.0
20260510003518 10 142 0.0 1.6 0.00 0.00 0.00 96 1009.0
20260510003017 10 25 0.0 0.0 0.00 0.00 0.00 96 1009.0
20260510002516 10 25 0.0 1.6 0.00 0.00 0.00 96 1009.0
20260510002017 10 62 0.0 0.0 0.00 0.00 0.00 96 1009.0
20260510001516 10 154 1.6 1.6 0.00 0.00 0.00 96 1009.0
20260510001016 11 129 0.0 0.0 0.00 0.00 0.00 96 1009.0
20260510000516 11 122 0.0 0.0 0.00 0.00 0.00 96 1009.0
20260510000016 11 37 0.0 0.0 0.00 0.00 0.00 96 1009.0
20260509235516 11 117 0.0 1.6 0.00 0.00 0.00 96 1009.0
20260509235016 11 66 0.0 1.6 0.00 0.00 0.00 96 1009.0
20260509234516 11 39 0.0 1.6 0.00 0.00 0.00 96 1009.0
20260509234017 11 62 0.0 1.6 0.00 0.00 0.00 96 1009.0
20260509233516 11 126 0.0 1.6 0.00 0.00 0.00 96 1009.0
20260509233016 11 46 0.0 1.6 0.00 0.00 0.00 96 1009.0
20260509232516 11 66 0.0 0.0 0.00 0.00 0.00 96 1009.0
20260509232016 11 117 0.0 1.6 0.00 0.00 0.00 96 1009.0
20260509231516 11 119 0.0 1.6 0.00 0.00 0.00 96 1009.0
20260509231017 11 147 0.0 3.2 0.00 0.00 0.00 97 1009.0
20260509230517 12 141 0.0 1.6 0.00 0.00 0.00 96 1009.0
20260509230017 12 117 0.0 1.6 0.00 0.00 0.00 96 1009.0
20260509225516 12 67 0.0 3.2 0.00 0.00 0.00 96 1009.0
20260509225016 12 25 0.0 1.6 0.00 0.00 0.00 96 1009.0
20260509224519 12 123 0.0 1.6 0.00 0.00 0.00 96 1009.0
20260509224017 12 135 0.0 1.6 0.00 0.00 0.00 96 1009.0
20260509223516 12 31 0.0 1.6 0.00 0.00 0.00 96 1009.0
20260509223016 11 37 0.0 1.6 0.00 0.00 0.00 96 1009.0
20260509222516 11 60 1.6 3.2 0.00 0.00 0.00 96 1009.0
20260509222016 11 154 0.0 1.6 0.00 0.00 0.00 96 1009.0
20260509221516 11 154 0.0 0.0 0.00 0.00 0.00 96 1009.0
20260509221017 11 193 0.0 1.6 0.00 0.00 0.00 96 1009.0
20260509220516 11 154 0.0 3.2 0.00 0.00 0.00 96 1009.0
20260509220016 11 56 1.6 1.6 0.00 0.00 0.00 96 1009.0
20260509215516 12 89 0.0 1.6 0.00 0.00 0.00 96 1009.0
20260509215016 12 103 0.0 1.6 0.00 0.00 0.00 95 1009.0
20260509214516 11 36 1.6 1.6 0.00 0.00 0.00 95 1009.0
20260509214016 11 156 0.0 1.6 0.00 0.00 0.00 95 1009.0
20260509213516 11 80 0.0 1.6 0.00 0.00 0.00 95 1009.0
20260509213016 11 122 3.2 4.8 0.00 0.00 0.00 95 1009.0
20260509212520 11 165 0.0 3.2 0.00 0.00 0.00 95 1009.0
20260509212016 11 135 3.2 4.8 0.00 0.00 0.00 95 1009.0
20260509211518 11 115 3.2 4.8 0.00 0.00 0.00 95 1009.0
20260509211017 11 86 1.6 3.2 0.00 0.00 0.00 94 1009.0
20260509210519 11 124 0.0 4.8 0.00 0.00 0.00 94 1009.0
20260509210016 11 129 3.2 4.8 0.00 0.00 0.00 94 1009.0
20260509205516 11 127 3.2 4.8 0.00 0.00 0.00 94 1009.0
20260509205017 11 136 3.2 4.8 0.00 0.00 0.00 94 1009.0
20260509204517 11 55 0.0 3.2 0.00 0.00 0.00 93 1009.0
20260509204016 11 44 0.0 3.2 0.00 0.00 0.00 93 1009.0